Hourly Data Report for September 10, 2020

SHEARWATER RCS
NOVA SCOTIA
Current Station Operator: ECCC - MSC

44°37'47.000" N
63°30'48.000" W
24.00 m
8205092
71264
AAW

Download Data

Hourly Data (September 2020)
Hourly Data Report for September 10, 2020
TIME Temp Definition
°C
Dew Point Definition
°C
Rel Hum Definition
%
Wind Dir Definition
10's deg

Wind Spd Definition
km/h
Visibility Definition
km
Stn Press Definition
kPa
Hmdx Definition


Wind Chill Definition


Weather Definition


00:00 19.4 18.7 96 18 2   102.50     LegendNANA
01:00 19.3 18.6 96 20 5   102.49     LegendNANA
02:00 18.9 18.3 96 25 2   102.47     LegendNANA
03:00 18.6 18.0 96   0   102.45     LegendNANA
04:00 18.4 17.9 97 21 5   102.42     LegendNANA
05:00 18.5 18.0 97 0 1   102.39     LegendNANA
06:00 18.5 18.0 97 15 5   102.38     LegendNANA
07:00 18.8 18.3 97 16 5   102.40     LegendNANA
08:00 18.6 18.1 97 15 7   102.35     LegendNANA
09:00 19.1 18.5 97 16 8   102.32     LegendNANA
10:00 19.8 19.2 97 16 7   102.32     LegendNANA
11:00 20.3 19.7 97 16 8   102.23 28   LegendNANA
12:00 21.4 20.9 97 20 6   102.16 30   LegendNANA
13:00 21.9 21.3 96 16 7   102.11 31   LegendNANA
14:00 22.9 21.0 89 16 11   102.02 31   LegendNANA
15:00 21.6 20.3 93 17 10   101.96 29   LegendNANA
16:00 20.8 19.8 94 17 8   101.91 28   LegendNANA
17:00 21.1 20.2 95 17 7   101.87 29   LegendNANA
18:00 20.7 19.8 95 18 5   101.80 28   LegendNANA
19:00 20.2 19.4 95 18 7   101.74 27   LegendNANA
20:00 20.7 20.0 96 24 5   101.74 28   LegendNANA
21:00 20.8 20.1 95 23 3   101.64 28   LegendNANA
22:00 20.8 20.1 96 18 7   101.58 28   LegendNANA
23:00 20.6 19.9 96 21 10   101.50 28   LegendNANA

Notes on Data Quality.

Legend

  • E = Estimated
  • M = Missing
  • NA = Not Available*
  • [empty] = Indicates an unobserved value
Date modified: